Regional Weather Roundup
Issued by NWS

Home | Current Version | Previous Version | Graphics & Text | Print | Product List | Glossary On
Versions: 1 2 3 4 5 6 7 8 9 10 11 12 13 14 15 16 17 18 19 20 21 22 23 24 25 26 27 28 29 30 31 32 33 34 35 36 37 38 39 40 41 42 43 44 45 46 47 48 49 50
000
ASUS45 KBOI 230910
RWRID

IDAHO REGIONAL WEATHER ROUNDUP
NATIONAL WEATHER SERVICE BOISE ID
300 AM MDT SUN APR 23 2017

NOTE: "FAIR" INDICATES FEW OR NO CLOUDS BELOW 12000 FEET
WITH NO SIGNIFICANT WEATHER AND/OR OBSTRUCTIONS TO VISIBILITY

IDZ012-014-231000-
SOUTHWEST IDAHO


CITY           SKY/WX    TMP DP  RH WIND       PRES   REMARKS
BOISE          CLOUDY    59  36  42 W7        29.83S
CALDWELL       CLOUDY    54  40  59 W9        29.82F
MOUNTAIN HOME  CLOUDY    54  44  68 E10       29.83F
$$

IDZ016-017-231000-
SOUTHCENTRAL IDAHO


CITY           SKY/WX    TMP DP  RH WIND       PRES   REMARKS
BURLEY         LGT RAIN  52  31  44 VRB3      29.89R
JEROME         LGT RAIN  50  40  68 W13G29    29.91R
TWIN FALLS     LGT RAIN  49  40  71 S13       29.90S
$$

IDZ019>023-231000-
SOUTHEAST IDAHO


CITY           SKY/WX    TMP DP  RH WIND       PRES   REMARKS
IDAHO FALLS    MOCLDY    43  34  70 N3        29.92F
POCATELLO      PTCLDY    43  37  79 NW9       29.90F
REXBURG        CLOUDY    41  33  73 NE6       29.94F
$$

IDZ006-010-011-018-031-032-231000-
CENTRAL IDAHO MOUNTAINS


CITY           SKY/WX    TMP DP  RH WIND       PRES   REMARKS
MCCALL         RAIN      41  38  89 N6        29.88S FOG
HAILEY         CLOUDY    43  32  65 N7        29.96S
STANLEY          N/A     39  26  59 N5        29.93R
SALMON         MOCLDY   N/A N/A N/A MISG        N/A
CHALLIS        MOCLDY    40  27  59 E5        29.87F
$$

IDZ002-004-006-007-026-231000-
NORTHERN IDAHO


CITY           SKY/WX    TMP DP  RH WIND       PRES   REMARKS
LEWISTON       CLOUDY    50  45  83 S3        29.91R
LOWELL           N/A     49  44  83 CALM      29.91R
COEUR D`ALENE  CLOUDY    46  39  76 S9        29.88F
MULLAN PASS    CLOUDY    35  30  82 SW3       29.89F
$$



USA.gov is the U.S. government's official web portal to all federal, state and local government web resources and services.